Location: Helsinki
(60.1699°N, 24.9384°E)
Time: 04:12:29
(UTC+02:00)

Transit 4A - Pass Details

Date: 28 October 2020
Orbit: 862 x 982 km, 66.8° (Epoch: 25 November)

Event Time Altitude Azimuth Distance (km) Brightness Sun altitude
Rises 02:05:44 0° 310° (NW) 3,699 - -38.0°
Reaches altitude 10° 02:10:17 10° 280° (W) 2,739 - -37.6°
Maximum altitude 02:12:22 12° 261° (W) 2,606 - -37.5°
Drops below altitude 10° 02:14:26 10° 242° (WSW) 2,722 - -37.3°
Sets 02:18:56 0° 212° (SSW) 3,642 - -36.9°
